#timestamp,LO_Frequency,Hit,StdDev 
1575982815.6,286046997.5,P
1575982835.4,286046997.6,P
1575982855.2,286046997.9,Y
1575982875.1,286046998.9,P
1575982876.0,286046998.9,N
1575982895.8,286046999.2,N
1575982915.7,286046999.5,N
1575982935.5,286046997.4,Y
1575982955.3,286046998.6,P
1575982975.2,286046999.0,P
1575982995.0,286046999.1,P
1575982995.9,286046999.1,Y
1575983015.7,286047000.8,P
1575983035.6,286047000.9,N
1575983055.4,286046998.1,N
1575983075.3,286047001.1,N
1575983095.1,286047000.9,N
1575983096.0,286047000.9,N
1575983115.8,286046999.3,N
1575983135.7,286046999.4,N
1575983155.5,286046996.8,Y
1575983175.4,286046997.2,P
1575983195.2,286046995.0,P
1575983215.0,286046993.7,P
1575983215.9,286046993.7,N
1575983235.8,286046993.7,N
1575983255.6,286046993.5,N
1575983275.4,286046994.4,N
1575983295.3,286046996.1,N
1575983315.1,286046995.4,N
1575983335.9,286046993.5,Y
1575983355.7,286046999.4,P
1575983375.5,286046999.0,N
1575983395.4,286046999.1,N
1575983415.2,286046996.5,N
1575983435.0,286046996.3,N
1575983435.9,286046996.3,N
1575983455.8,286046995.4,N
1575983475.6,286046995.9,N
1575983495.5,286046995.9,N
1575983515.3,286046996.1,N
1575983535.1,286046994.5,Y
1575983555.9,286046994.9,P
1575983575.7,286046994.9,P
1575983595.6,286046995.5,P
1575983615.4,286046996.3,Y
1575983635.2,286046998.7,P
1575983655.1,286046998.1,N
1575983656.0,286046998.1,N
1575983675.8,286046998.4,N
1575983695.6,286047000.7,N
1575983715.5,286046996.9,N
1575983735.3,286046999.2,N
1575983755.2,286046996.5,N
1575983775.9,286046995.1,Y
1575983795.7,286046998.5,P
1575983815.6,286046996.7,P
1575983835.4,286046997.2,P
1575983855.2,286046997.0,Y
1575983875.1,286046998.5,P
1575983876.0,286046998.5,P
1575983895.8,286047001.0,N
1575983915.7,286047002.7,N
1575983935.5,286047000.0,N
1575983955.3,286047000.4,N
1575983975.2,286046999.8,N
1575983995.0,286047002.2,N
1575983995.9,286047002.2,N
1575984015.8,286047002.4,N
1575984035.6,286047002.8,N
1575984055.4,286047000.3,N
1575984075.3,286046999.9,N
1575984095.1,286046998.2,N
1575984115.8,286047000.3,N
1575984135.7,286047000.5,N
1575984155.5,286047001.0,N
1575984175.4,286047001.1,N
1575984195.2,286047000.3,N
1575984215.0,286047002.1,N
1575984215.9,286047002.1,N
1575984235.8,286047001.5,N
1575984255.6,286047001.9,N
1575984275.4,286047000.5,N
1575984295.3,286046998.6,N
1575984315.1,286046996.6,N
1575984335.9,286046999.4,N
1575984355.7,286046999.3,N
1575984375.5,286046998.8,N
1575984395.4,286046998.1,N
1575984415.2,286047001.0,N
1575984435.1,286047011.9,Y
1575984436.0,286046998.6,P
1575984455.8,286046999.1,N
1575984475.6,286046995.0,P
1575984495.5,286046996.7,N
1575984515.3,286046996.5,N
1575984535.1,286046997.2,N
1575984555.9,286046995.4,N
1575984575.7,286046998.0,N
1575984595.6,286046996.3,N
1575984615.4,286046998.0,N
1575984635.2,286046999.2,N
1575984655.1,286046996.9,N
1575984656.0,286046996.9,N
1575984675.8,286046997.7,N
1575984695.6,286046997.7,N
1575984715.5,286046995.6,Y
1575984735.3,286046999.2,P
1575984755.2,286046999.1,N
1575984775.9,286046998.3,N
1575984795.7,286046999.2,N
1575984815.6,286046999.6,N
1575984835.4,286046998.8,N
1575984855.3,286046997.8,Y
1575984875.1,286046998.4,P
1575984876.0,286046998.4,P
1575984895.8,286046998.5,P
1575984915.7,286047000.1,N
1575984935.5,286047000.1,N
1575984955.3,286047000.2,N
1575984975.2,286046999.7,N
1575984995.0,286047002.2,N
1575984995.9,286047002.2,N
1575985015.8,286047002.1,N
1575985035.6,286047002.8,N
1575985055.4,286046999.7,N
1575985075.3,286047002.7,N
1575985095.1,286047002.1,N
1575985115.8,286047001.9,N
1575985135.7,286046999.9,N
1575985155.5,286047002.6,N
1575985175.4,286047002.5,N
1575985195.2,286047002.1,N
1575985215.0,286047001.7,N
1575985215.9,286047001.7,N
1575985235.8,286047011.9,Y
1575985255.6,286047001.7,P
1575985275.5,286047001.3,P
1575985295.3,286047003.2,P
1575985315.1,286047004.6,Y
1575985335.9,286047003.9,P
1575985355.7,286047005.8,P
1575985375.5,286047005.8,P
1575985395.4,286047002.9,N
1575985415.2,286047006.0,Y
1575985435.1,286047001.1,P
1575985436.0,286047001.1,N
1575985455.8,286047002.6,N
1575985475.6,286047002.6,N
1575985495.5,286047002.4,N
1575985515.3,286047002.7,N
1575985535.2,286047000.1,N
1575985555.9,286047002.4,N
1575985575.7,286047001.6,N
1575985595.6,286047002.2,N
1575985615.4,286047001.5,N
1575985635.2,286047001.3,N
1575985655.1,286047004.4,Y
1575985656.0,286047004.4,P
1575985675.8,286047001.6,N
1575985695.7,286047002.0,N
1575985715.5,286047002.1,N
1575985735.3,286047001.5,N
1575985755.2,286047005.5,Y
1575985775.0,286047003.6,P
1575985775.9,286047003.6,P
1575985795.8,286047001.4,N
1575985815.6,286047005.6,Y
1575985835.4,286047002.3,P
1575985855.3,286047011.9,P
1575985875.1,286047004.0,N
1575985895.8,286047004.2,N
1575985915.7,286047003.3,N
1575985935.5,286047005.4,N
1575985955.4,286047007.2,N
1575985975.2,286047004.8,N
1575985995.0,286047004.8,N
1575985995.9,286047004.8,N
1575986015.8,286047004.7,N
1575986035.6,286047005.7,N
1575986055.5,286047005.8,N
1575986075.3,286047003.2,N
1575986095.1,286047003.8,N
1575986115.9,286047003.6,N
1575986135.7,286047003.4,N
1575986155.5,286047005.4,N
1575986175.4,286047005.5,N
1575986195.2,286047005.3,N
1575986215.1,286047005.2,N
1575986216.0,286047005.2,N
1575986235.8,286047005.4,N
1575986255.6,286047006.3,Y
1575986275.5,286047002.4,P
1575986295.3,286046999.8,N
1575986315.1,286047002.3,N
1575986335.9,286047001.5,N
1575986355.7,286047001.6,N
1575986375.6,286047003.8,N
1575986395.4,286047003.7,N
